Find Starlink 30925

NORAD ID: 58406 Int'l Des: 2023-180 Owner: SPXS Country: US Constellation: starlink operational
LEOCIRCULAR

当前视图

正在加载3D地球...

About Starlink 30925

Starlink 30925 (NORAD 58406) is a starlink constellation satellite (v2 mini) launched Nov 22, 2023 by SPXS of US. It operates in LEO, CIRCULAR orbit with a mass of 730.00 kg.

关于 Starlink 30925

正在加载描述...

即将过境

Passes for default location (London). Set your location on the main map for personalized predictions.

高度历史

Loading altitude history...

两行轨道根数

1 58406U 23180E 26175.26502657 .00004619 00000-0 17728-3 0 9999
2 58406 43.0003 170.8135 0001376 280.4336 79.6360 15.27575853143808
Epoch: Jun 24, 2026 • Age: 7 hours

当前状态

高度 495.4 km
速度 7.62 km/s
星下点 -42.78°S, 49.71°W
发射日期 Nov 22, 2023
运行时间 2.5 years
类型 internet

技术详情

分类 Payload
质量 730.00 kg
干质量 700.00 kg
总质量 730.00 kg
长度 0.30 m
直径 4.10 m
跨度 29.00 m
形状 Box + pan
制造商 SPXS
平台类型 Starlink V2M
阶段状态 In Orbit
所有者/国家 SPXS/US

Most Searched